Location: Bakov nad Jizerou
(50.4784°N, 14.9394°E)
Time: 07:42:30
(UTC+00:00)

Lacrosse 5 rocket - Pass Details

Date: 16 June 2021
Orbit: 460 x 633 km, 57.0° (Epoch: 04 August)

Event Time Altitude Azimuth Distance (km) Brightness Sun altitude
Rises 20:49:56 0° 209° (SSW) 2,531 4.4 -10.7°
Reaches altitude 10° 20:52:14 10° 199° (SSW) 1,635 3.4 -10.8°
Maximum altitude 20:55:31 32° 136° (SE) 830 1.7 -11.1°
Drops below altitude 10° 20:58:44 10° 72° (ENE) 1,613 3.6 -11.3°
Sets 21:01:00 0° 62° (ENE) 2,490 4.7 -11.5°
